Theta_e
321 310 306 307 300 296 292 297 302 304 307 313 318 323 322 325 321 311 339 348 352 355 359 361 363 363 363 362 360 360 359 359 359 359 359 360 360 361 361 361 360 359 357 353 355 356 356 355 355
321 311 307 301 295 290 294 299 302 304 309 313 329 332 330 328 340 340 342 348 352 356 358 359 363 363 363 362 360 359 359 359 359 358 358 359 360 361 360 360 360 358 356 353 353 354 355 354 353
311 309 301 296 291 291 294 301 303 305 308 308 312 332 333 332 342 342 347 350 353 355 357 359 363 362 362 362 360 359 359 359 359 359 358 358 360 360 361 361 360 357 354 353 353 353 354 354 354
303 300 298 292 291 295 299 302 301 303 305 308 313 319 335 344 343 347 351 351 352 354 355 361 362 362 362 362 360 360 359 359 359 359 359 359 359 359 359 360 359 358 356 354 353 354 354 354 355
301 295 290 288 291 294 297 300 302 301 301 304 305 310 330 345 350 351 349 351 351 353 355 360 362 362 362 362 360 360 359 358 358 359 359 358 358 358 358 359 358 358 356 355 354 354 355 355 354
299 293 286 287 290 294 296 298 298 299 300 303 304 325 331 347 347 348 349 348 352 352 356 358 361 361 361 361 360 359 358 358 358 359 359 359 358 358 358 358 357 357 357 356 355 355 355 353 352
296 288 286 285 289 292 296 299 297 298 298 300 307 322 330 342 347 349 347 347 350 354 356 357 357 359 361 360 359 359 358 357 357 358 358 359 359 359 358 357 357 357 357 357 356 355 354 352 351
296 291 285 288 289 291 298 297 297 298 301 305 315 324 327 339 349 348 345 348 349 352 354 356 357 357 355 355 359 359 358 358 358 358 358 358 358 358 358 355 356 355 355 355 356 355 354 353 351
295 286 285 288 290 292 297 294 300 303 301 303 305 322 336 347 348 345 345 347 348 349 351 354 355 355 354 356 357 359 359 359 358 358 358 356 351 353 354 355 356 356 355 355 355 354 354 352 352
293 286 288 293 294 293 297 295 298 300 300 301 303 309 340 346 343 341 342 343 345 346 348 351 354 354 353 355 355 354 353 354 353 353 354 351 348 348 352 353 355 356 355 354 353 353 353 351 342
292 289 294 296 297 297 297 295 298 298 296 299 301 304 311 334 339 341 342 345 344 347 348 350 352 353 352 353 354 354 353 354 353 352 350 347 347 347 348 345 348 347 352 345 348 345 344 340 337
287 293 297 297 299 298 297 298 297 299 299 302 303 305 308 308 330 338 341 343 344 345 347 349 350 351 351 351 350 350 351 352 351 351 348 345 342 342 341 342 341 342 342 341 339 338 337 336 336
289 292 295 298 298 297 299 298 297 297 301 303 302 303 303 303 306 308 321 339 345 344 346 347 349 350 350 350 348 349 350 351 351 350 348 346 341 340 340 340 338 338 339 338 335 333 333 332 332
294 294 296 297 294 293 294 296 297 298 302 301 301 301 301 302 303 302 303 314 342 346 345 346 348 349 348 348 347 348 348 349 349 349 348 347 343 340 339 338 338 337 336 336 336 333 330 329 329
296 292 293 293 293 292 294 293 294 299 301 300 300 301 301 301 302 302 303 319 335 344 345 344 346 347 346 348 348 349 350 350 349 348 348 347 345 340 337 337 336 337 336 335 334 332 331 329 329
290 289 288 292 293 294 294 289 295 299 300 299 300 301 301 301 302 301 303 303 327 340 342 344 347 345 343 346 347 347 348 348 348 347 347 347 345 340 335 335 335 337 336 336 333 332 330 329 328
288 283 284 289 294 294 292 289 296 299 299 298 299 299 300 300 301 302 303 302 310 338 341 341 343 342 341 344 344 342 341 344 344 342 341 344 343 339 335 336 338 340 337 336 335 333 331 329 331
284 284 286 287 292 293 292 291 295 298 297 297 298 298 299 300 302 304 304 303 308 333 339 340 341 340 339 341 339 339 339 338 338 339 338 339 339 340 337 336 338 341 338 338 337 336 334 335 336
290 288 287 290 294 293 291 291 294 297 296 295 296 297 298 300 305 304 304 304 303 330 334 335 336 337 342 340 337 335 335 332 333 334 335 336 338 337 335 336 337 339 338 336 335 333 333 330 333
291 288 288 292 295 292 291 291 294 296 296 296 298 298 299 300 302 305 305 303 304 327 334 334 337 339 341 342 337 335 334 331 332 332 332 334 335 336 335 335 335 335 334 334 332 331 329 330 331
290 288 288 289 294 294 291 289 292 297 297 299 299 299 300 301 301 304 304 303 309 328 334 337 335 339 340 337 335 332 332 333 330 329 329 331 334 335 335 336 336 334 332 330 328 328 327 325 329
289 294 293 292 291 284 291 281 289 293 295 296 299 298 300 302 304 305 304 303 314 327 335 337 334 337 335 334 332 334 330 330 329 329 331 331 332 332 332 332 331 331 329 328 329 330 327 326 323
293 298 294 294 292 288 290 283 288 291 293 294 298 300 299 308 315 316 309 326 330 334 333 331 330 332 333 333 334 332 328 328 327 329 329 328 328 330 331 328 326 324 324 326 330 330 328 327 325
300 298 296 294 290 283 288 286 284 288 293 295 298 299 310 313 314 322 330 335 334 339 339 335 333 333 334 334 331 330 327 326 324 324 323 323 323 326 328 328 325 324 326 327 328 329 329 328 327
298 292 285 283 282 281 289 285 287 293 297 298 300 304 308 310 318 321 323 326 333 334 336 337 333 333 330 329 328 327 325 324 323 321 322 323 323 323 324 325 324 324 325 329 330 326 325 324 322
295 294 284 279 277 282 288 283 287 300 304 303 304 306 309 317 319 322 324 326 327 333 336 336 334 332 330 328 326 325 323 324 325 324 324 324 323 324 325 325 326 326 327 327 330 326 324 323 323
292 291 294 285 291 283 285 289 299 304 303 305 308 310 312 316 318 319 320 321 323 325 325 328 333 329 328 328 326 326 326 325 324 325 325 325 325 330 328 328 325 325 328 330 328 327 325 324 323
297 297 287 289 281 280 285 290 291 297 299 302 304 305 311 316 314 314 317 319 320 320 321 322 323 325 329 330 330 328 326 328 329 328 328 328 326 326 332 331 327 324 324 324 325 322 324 322 325
292 292 293 289 285 280 282 285 299 298 300 300 303 305 306 312 312 313 314 316 316 317 318 318 318 319 319 320 320 321 323 324 324 322 322 320 318 319 321 325 323 322 320 319 318 319 321 324 323
298 292 292 283 283 286 286 288 303 301 302 304 304 308 308 308 307 308 310 310 309 310 313 313 314 313 313 314 315 314 315 316 316 317 319 321 319 321 324 328 324 326 325 323 320 320 321 322 325
Wind_Speed
7 7 1 4 4 5 5 6 4 4 6 7 4 3 8 2 2 5 4 10 17 17 14 14 17 17 17 18 18 18 19 19 19 18 18 18 17 17 16 15 14 15 16 15 14 13 13 13 13
4 4 4 2 5 1 7 5 11 3 5 10 6 2 1 3 3 6 10 10 21 18 14 13 18 17 17 17 18 18 18 19 18 18 17 16 16 16 15 14 14 15 15 14 13 12 12 12 12
4 2 4 4 4 8 6 6 2 5 6 4 5 3 3 3 2 11 5 16 18 15 15 14 18 18 18 18 18 17 17 18 18 18 17 16 15 15 15 14 13 14 14 13 12 10 9 10 10
2 5 5 4 12 8 7 4 6 11 6 4 5 8 5 6 9 6 16 19 17 14 13 18 18 18 18 18 18 17 16 17 17 16 16 15 15 13 13 12 12 12 12 12 11 9 7 7 7
4 3 2 3 9 7 2 3 7 10 7 13 4 8 4 4 7 14 17 16 16 13 11 15 19 16 18 18 18 17 15 15 16 16 15 14 12 12 12 11 11 10 10 11 10 8 5 4 4
4 4 2 8 9 3 3 3 1 5 6 13 2 2 4 4 11 14 15 15 14 13 11 12 17 16 15 17 18 17 16 14 14 15 14 13 12 11 11 10 10 10 10 9 9 8 6 5 3
5 4 6 4 5 5 3 5 3 5 6 9 4 7 4 4 7 13 13 12 13 11 11 11 10 12 14 15 17 17 16 15 14 13 12 12 11 10 9 8 8 8 8 8 7 6 5 5 4
5 4 3 6 5 8 2 1 1 3 8 6 1 7 6 6 12 11 11 10 10 9 9 12 10 9 7 6 12 16 17 16 15 14 13 12 12 11 9 9 8 9 9 9 8 8 7 6 5
5 2 6 7 8 5 1 3 6 4 4 5 7 4 5 19 15 13 11 8 8 8 10 13 15 12 11 8 8 10 14 16 17 15 14 10 5 6 9 9 9 9 8 8 8 7 7 7 7
5 5 10 7 5 2 1 2 5 6 7 7 8 14 14 16 13 13 12 11 11 13 12 11 13 14 13 11 11 9 9 6 4 7 9 6 6 5 5 6 9 9 8 8 8 8 7 7 3
5 8 7 4 6 5 6 3 3 6 8 6 3 5 6 7 6 4 6 14 21 16 11 14 15 15 15 12 9 7 6 6 5 8 6 5 4 4 4 3 3 4 7 3 5 4 4 5 3
4 8 12 2 6 3 4 3 4 7 10 4 4 2 1 6 9 9 7 7 7 11 10 12 12 11 10 6 7 7 7 7 8 10 9 6 3 4 3 3 5 4 3 5 4 3 5 6 6
6 4 5 9 10 8 9 12 6 11 11 11 7 6 6 6 7 4 7 10 12 12 10 11 11 13 10 8 6 7 8 7 10 9 8 7 6 6 5 5 4 4 3 4 5 5 4 5 5
5 13 17 15 11 5 7 12 6 5 12 11 9 10 8 8 9 8 7 9 11 12 13 13 13 11 10 11 10 8 7 8 10 8 9 11 8 7 7 6 6 5 4 4 4 4 4 4 4
10 11 7 8 6 9 4 20 19 10 11 11 11 10 9 9 9 11 9 10 11 11 15 17 16 12 12 13 12 9 9 9 9 9 11 13 12 10 9 7 6 6 4 5 4 4 3 4 4
4 6 15 5 10 6 10 24 9 9 10 11 10 10 9 11 9 10 10 8 9 9 15 16 14 16 14 12 9 8 9 8 8 8 7 11 10 6 5 3 4 5 5 5 4 3 3 5 5
5 4 4 3 8 5 12 8 7 10 11 11 9 9 11 11 10 10 11 10 11 12 14 14 16 16 14 10 9 7 7 7 7 5 6 9 9 8 7 5 4 4 5 5 5 4 4 4 5
6 4 5 6 5 7 12 13 9 8 6 10 10 10 9 10 13 11 10 8 10 9 11 14 12 14 10 7 5 3 4 3 3 4 5 6 5 7 6 5 6 5 4 5 5 3 3 3 2
7 6 7 2 7 9 9 7 9 9 7 9 10 10 11 13 15 8 8 4 8 7 7 8 10 11 13 9 6 4 6 2 2 3 5 6 6 7 7 6 7 5 5 4 4 2 4 2 2
14 14 17 3 3 3 5 10 10 9 10 10 14 13 13 8 7 11 11 3 8 11 9 7 10 13 12 11 5 4 4 2 3 2 5 6 9 9 7 7 5 3 3 2 1 2 1 1 3
13 18 10 4 4 6 4 10 7 12 9 16 11 12 9 12 10 11 11 9 9 11 13 13 13 14 10 6 9 6 6 4 2 1 2 5 5 3 2 3 3 4 3 4 4 5 5 4 4
15 6 7 4 2 5 3 7 7 8 13 9 17 8 10 8 8 6 7 5 8 8 10 11 11 11 8 8 5 13 6 7 3 2 3 2 4 2 2 3 4 4 2 2 2 3 3 0 2
9 4 5 5 6 4 7 2 10 3 8 7 8 9 4 4 5 7 6 7 7 7 6 5 7 8 10 10 10 8 5 2 2 3 3 3 3 2 4 5 3 3 4 4 4 4 5 4 4
11 11 4 6 1 3 16 10 7 4 7 1 2 4 7 5 5 5 6 10 11 10 10 9 10 9 9 12 9 10 9 7 4 4 3 3 3 5 6 5 5 6 5 5 5 6 8 8 5
11 5 1 3 5 13 4 6 10 5 5 3 4 8 6 6 8 7 9 7 10 9 8 7 5 3 0 1 5 3 4 4 4 2 1 3 3 4 5 6 5 4 5 6 6 6 5 2 2
12 10 5 6 5 11 3 8 4 7 9 3 6 9 6 7 9 12 12 11 10 9 8 7 6 3 3 4 4 5 5 2 2 3 2 4 4 3 3 5 6 7 7 5 8 3 4 4 4
5 19 15 1 2 2 3 3 2 13 10 10 15 13 5 7 10 12 13 12 12 11 9 7 7 4 3 3 5 4 4 3 4 6 4 4 3 3 5 6 6 5 4 9 4 6 4 2 2
15 8 5 4 4 2 4 2 0 6 8 7 14 5 8 7 9 11 12 13 12 12 11 13 12 11 9 7 6 6 6 5 5 4 3 1 1 2 3 6 3 3 3 1 2 3 2 2 2
7 7 3 5 5 6 3 1 2 1 5 6 7 7 1 10 9 10 12 12 12 12 12 13 13 13 12 9 7 8 6 6 6 6 5 5 4 6 5 1 1 2 3 4 5 3 1 4 4
10 9 15 6 5 3 5 2 1 3 6 10 8 6 3 10 9 9 12 12 12 12 12 12 12 13 10 9 10 8 9 8 7 6 7 6 6 5 2 2 1 3 4 4 5 5 5 6 7
Wind_Direction
322 303 296 34 47 59 263 256 262 305 339 294 248 176 190 325 166 209 139 149 134 144 155 158 154 146 143 137 130 129 127 126 126 128 132 133 133 132 130 127 129 131 134 136 136 136 131 126 126
329 332 37 73 100 72 268 236 238 155 288 311 339 64 55 266 109 99 120 158 149 148 153 157 157 150 145 138 134 133 132 132 132 135 136 134 134 133 132 131 134 134 137 139 141 142 138 134 131
314 32 87 123 158 200 224 234 185 286 234 262 303 304 180 211 98 163 151 147 140 150 152 158 159 154 147 143 139 138 140 141 140 140 140 141 139 138 135 137 138 138 140 143 145 145 142 140 138
26 11 26 114 230 248 185 237 340 343 344 126 340 307 292 175 153 180 142 143 143 149 154 158 158 158 149 145 143 145 148 147 144 143 145 147 145 139 136 139 139 140 145 147 148 155 157 157 150
35 57 100 254 255 253 138 299 322 305 300 292 101 268 271 8 94 126 139 148 149 150 152 155 156 160 151 148 148 149 151 152 151 149 150 151 144 139 139 143 144 147 152 155 159 164 173 181 180
47 98 100 223 237 284 308 210 309 282 274 291 264 152 249 117 126 143 144 150 147 149 150 154 154 156 155 153 154 154 155 157 155 153 153 151 149 149 150 150 149 155 161 166 169 176 184 202 233
135 106 215 212 272 296 225 184 199 263 276 286 266 148 285 231 134 140 142 137 140 144 144 147 149 154 158 164 160 159 159 157 156 155 154 153 155 155 154 153 155 161 167 172 177 188 203 222 239
127 110 247 228 210 271 257 249 234 232 275 292 237 188 225 197 137 121 125 122 131 138 146 148 143 141 139 152 173 166 163 159 157 157 158 158 161 162 164 166 171 173 178 185 190 199 207 222 248
122 99 227 226 165 233 230 46 306 276 266 301 311 272 267 123 130 123 126 117 132 146 156 159 160 158 165 162 174 175 174 167 163 162 159 156 159 169 180 183 188 188 194 198 201 213 224 234 246
159 171 224 208 204 281 273 47 338 328 333 309 342 13 74 125 140 145 160 157 165 173 176 168 167 166 166 171 172 161 178 171 160 164 164 163 164 163 179 200 204 204 208 211 212 216 225 241 255
198 216 239 221 219 242 262 272 242 269 292 247 320 356 28 107 128 172 189 181 184 180 176 182 175 174 174 174 168 167 166 156 164 174 163 158 155 171 175 180 200 206 219 216 227 228 222 227 235
227 228 231 275 229 256 257 239 265 250 248 235 243 258 207 144 178 184 195 202 186 184 198 183 180 175 176 160 168 166 167 164 174 184 168 157 160 183 194 200 206 203 204 200 211 220 227 232 230
217 241 233 242 257 259 277 255 244 255 262 275 245 206 225 240 179 220 203 204 191 180 187 190 185 178 171 153 159 167 176 177 185 187 173 168 176 189 176 207 201 218 203 198 207 220 225 233 232
226 212 235 247 253 244 273 279 200 235 252 266 259 253 235 234 227 179 195 226 190 189 183 174 187 187 164 163 166 175 175 181 190 187 186 185 186 191 195 202 210 215 198 209 216 224 238 255 236
231 266 275 233 229 244 197 279 246 234 244 240 261 264 266 208 227 235 196 195 186 193 175 179 180 176 176 175 170 176 179 180 190 195 193 193 195 198 194 194 192 209 203 210 206 221 225 257 270
270 167 244 217 179 223 148 257 293 212 201 232 238 265 266 270 231 215 233 190 197 169 182 181 180 180 177 176 180 179 183 185 192 197 195 200 203 196 184 179 204 196 193 196 189 194 218 239 220
265 243 210 277 195 206 182 262 254 213 210 231 248 233 258 277 278 267 226 196 193 184 179 181 179 178 181 175 170 186 191 190 188 180 180 192 189 182 185 188 195 200 208 199 186 201 198 220 216
235 208 207 192 216 202 243 253 258 260 236 241 251 261 246 256 259 254 245 223 179 184 180 180 180 162 141 137 114 118 145 162 158 186 188 164 159 160 168 177 179 185 181 195 186 142 183 207 206
296 277 247 192 248 195 239 256 252 256 248 244 246 251 258 257 264 276 267 224 156 168 162 165 152 162 152 150 154 165 183 164 122 142 142 158 164 168 172 182 183 169 225 206 141 150 184 283 6
239 261 262 291 260 213 278 270 259 247 247 222 237 238 241 250 272 274 269 209 161 169 169 151 166 164 175 164 157 135 131 97 98 135 147 183 187 189 174 179 189 184 203 263 138 172 199 211 209
218 223 239 216 315 280 291 290 287 270 242 243 238 229 242 237 241 251 251 234 142 163 171 171 170 170 167 154 117 103 90 73 99 146 204 221 216 210 238 225 215 165 170 204 193 180 181 211 245
235 204 223 226 251 235 128 280 281 275 256 220 231 219 234 235 226 231 234 166 160 162 165 171 170 166 141 151 132 157 161 166 190 181 194 131 119 122 204 252 239 243 105 290 232 185 179 146 207
246 208 226 210 232 264 253 294 261 331 265 241 213 226 209 216 226 174 153 139 123 123 121 111 124 150 144 159 166 163 146 137 135 151 174 150 140 217 225 177 157 156 163 182 190 171 193 183 178
234 270 337 350 124 249 242 195 280 230 222 202 19 206 173 132 137 109 104 119 120 133 145 140 156 179 171 175 176 168 163 169 161 166 181 173 151 212 206 169 177 171 182 181 200 204 196 197 180
211 141 115 227 191 234 202 180 226 289 269 173 208 152 126 134 97 95 90 99 121 130 125 112 97 116 20 67 62 109 144 141 172 155 253 277 249 220 198 176 171 172 185 181 197 198 218 189 194
205 184 178 161 199 232 197 226 236 284 265 128 62 102 99 104 102 97 95 94 95 95 99 117 109 99 95 80 84 94 89 115 157 203 223 249 243 264 152 179 194 190 189 206 232 218 230 155 210
224 182 200 194 19 132 214 251 188 4 5 102 107 92 71 86 101 95 87 87 91 87 75 96 126 132 142 73 84 107 147 221 251 268 250 260 251 240 216 189 216 216 209 236 229 227 225 136 246
207 155 204 195 205 182 261 88 40 346 329 348 92 49 131 105 97 96 94 92 85 84 84 74 71 69 81 69 50 54 55 58 56 52 24 346 281 247 222 180 175 112 170 259 265 251 241 187 190
185 185 122 151 170 175 163 354 272 262 350 37 60 71 105 108 106 98 99 94 92 82 81 85 78 75 65 63 60 64 64 64 60 47 36 46 9 343 351 12 192 211 251 226 228 242 292 273 282
198 183 178 166 218 212 147 179 127 108 50 50 26 86 82 90 77 84 83 88 88 87 78 77 86 84 80 78 70 63 62 59 52 46 43 39 35 18 22 7 237 299 283 254 258 260 245 256 265